When you browse on this site, cookies collect data to enhance your experience and personalize the content and advertising you see.
Visit our Privacy Policy to learn more. By continuing to use the site, you agree to this use of cookies and data.
  • Em Portugal
  • Lista de países
  • Para 7 dias
  • Temperatura da água
  • Mapas de satélite
  • Mapa do tempo
  • Widgets de tempo
  • user-avatar
    Iniciar Sessão

    Previsão horária em Hobart

    Hoje, 22 Janeiro, Terça-feira

    Tempo Temperatura Precipitação Vento Pressão Humidade
    00:00 +15°C° 0 mm 1 m/s 746 mmHg 79%
    01:00 +14°C° 0 mm 1 m/s 746 mmHg 80%
    02:00 +14°C° 0 mm 1 m/s 746 mmHg 79%
    03:00 +14°C° 0 mm 1 m/s 745 mmHg 79%
    04:00 +12°C° 0 mm 1 m/s 745 mmHg 88%
    05:00 +14°C° 0 mm 1 m/s 745 mmHg 79%
    06:00 +16°C° 0 mm 1 m/s 745 mmHg 70%
    07:00 +18°C° 0 mm 1 m/s 745 mmHg 61%
    08:00 +22°C° 0 mm 1 m/s 745 mmHg 53%
    09:00 +25°C° 0 mm 1 m/s 745 mmHg 45%
    10:00 +27°C° 0 mm 1 m/s 745 mmHg 39%
    11:00 +29°C° 0 mm 2 m/s 745 mmHg 35%
    12:00 +31°C° 0 mm 2 m/s 745 mmHg 31%
    13:00 +32°C° 0 mm 2 m/s 744 mmHg 26%
    14:00 +33°C° 0 mm 3 m/s 744 mmHg 28%
    15:00 +31°C° 0 mm 3 m/s 744 mmHg 30%
    16:00 +27°C° 0 mm 3 m/s 743 mmHg 43%
    17:00 +26°C° 0 mm 3 m/s 743 mmHg 49%
    18:00 +24°C° 0 mm 2 m/s 743 mmHg 54%
    19:00 +23°C° 0 mm 2 m/s 743 mmHg 59%
    20:00 +20°C° 0 mm 2 m/s 743 mmHg 69%
    21:00 +19°C° 0 mm 1 m/s 743 mmHg 79%
    22:00 +16°C° 0 mm 1 m/s 743 mmHg 94%
    23:00 +16°C° 0 mm 2 m/s 744 mmHg 91%

    Amanhã, 23 Janeiro, Quarta-feira

    Tempo Temperatura Precipitação Vento Pressão Humidade
    00:00 +16°C° 0 mm 2 m/s 744 mmHg 88%
    01:00 +16°C° 0 mm 2 m/s 745 mmHg 84%
    02:00 +14°C° 0.1 mm 3 m/s 745 mmHg 85%
    03:00 +14°C° 0.1 mm 4 m/s 746 mmHg 85%
    04:00 +13°C° 0.1 mm 5 m/s 747 mmHg 85%
    05:00 +13°C° 0 mm 5 m/s 747 mmHg 80%
    06:00 +12°C° 0 mm 4 m/s 748 mmHg 76%
    07:00 +12°C° 0 mm 4 m/s 749 mmHg 71%
    08:00 +13°C° 0 mm 4 m/s 749 mmHg 62%
    09:00 +14°C° 0 mm 3 m/s 750 mmHg 54%
    10:00 +16°C° 0 mm 3 m/s 750 mmHg 45%
    11:00 +18°C° 0 mm 3 m/s 750 mmHg 42%
    12:00 +19°C° 0 mm 3 m/s 750 mmHg 38%
    13:00 +20°C° 0 mm 3 m/s 751 mmHg 34%
    14:00 +20°C° 0 mm 3 m/s 750 mmHg 36%
    15:00 +19°C° 0 mm 3 m/s 750 mmHg 38%
    16:00 +19°C° 0 mm 4 m/s 750 mmHg 40%
    17:00 +18°C° 0 mm 3 m/s 750 mmHg 45%
    18:00 +16°C° 0 mm 3 m/s 751 mmHg 51%
    19:00 +15°C° 0 mm 2 m/s 751 mmHg 56%
    20:00 +13°C° 0 mm 2 m/s 751 mmHg 63%
    21:00 +12°C° 0 mm 2 m/s 752 mmHg 70%
    22:00 +11°C° 0 mm 1 m/s 752 mmHg 77%
    23:00 +11°C° 0 mm 1 m/s 752 mmHg 79%

    Depois de amanhã, 24 Janeiro, Quinta-feira

    Tempo Temperatura Precipitação Vento Pressão Humidade
    00:00 +10°C° 0 mm 1 m/s 752 mmHg 80%
    01:00 +10°C° 0 mm 1 m/s 752 mmHg 81%
    02:00 +10°C° 0 mm 1 m/s 751 mmHg 82%
    03:00 +9°C° 0 mm 2 m/s 751 mmHg 83%
    04:00 +9°C° 0 mm 2 m/s 751 mmHg 84%
    05:00 +10°C° 0 mm 2 m/s 751 mmHg 77%
    06:00 +13°C° 0 mm 2 m/s 750 mmHg 71%
    07:00 +14°C° 0 mm 2 m/s 750 mmHg 64%
    08:00 +17°C° 0 mm 2 m/s 750 mmHg 56%
    09:00 +20°C° 0 mm 2 m/s 750 mmHg 47%
    10:00 +24°C° 0 mm 2 m/s 750 mmHg 38%
    11:00 +25°C° 0 mm 3 m/s 749 mmHg 35%
    12:00 +27°C° 0 mm 4 m/s 749 mmHg 32%
    13:00 +29°C° 0 mm 4 m/s 748 mmHg 28%
    14:00 +29°C° 0 mm 4 m/s 748 mmHg 29%
    15:00 +29°C° 0 mm 5 m/s 747 mmHg 30%
    16:00 +30°C° 0 mm 5 m/s 747 mmHg 30%
    17:00 +28°C° 0 mm 5 m/s 746 mmHg 35%
    18:00 +27°C° 0 mm 5 m/s 746 mmHg 39%
    19:00 +26°C° 0 mm 4 m/s 745 mmHg 44%
    20:00 +23°C° 0 mm 5 m/s 744 mmHg 46%
    21:00 +22°C° 0 mm 5 m/s 744 mmHg 49%
    22:00 +21°C° 0 mm 5 m/s 743 mmHg 52%
    23:00 +21°C° 0 mm 5 m/s 743 mmHg 50%

    25 Janeiro, Sexta-feira

    Tempo Temperatura Precipitação Vento Pressão Humidade
    00:00 +21°C° 0 mm 5 m/s 742 mmHg 48%
    01:00 +21°C° 0 mm 5 m/s 741 mmHg 46%
    02:00 +22°C° 0 mm 5 m/s 740 mmHg 43%
    03:00 +23°C° 0 mm 5 m/s 739 mmHg 40%
    04:00 +25°C° 0 mm 5 m/s 739 mmHg 37%
    05:00 +27°C° 0 mm 6 m/s 738 mmHg 34%
    06:00 +29°C° 0 mm 6 m/s 738 mmHg 30%
    07:00 +32°C° 0 mm 6 m/s 738 mmHg 27%
    08:00 +33°C° 0 mm 6 m/s 738 mmHg 27%
    09:00 +34°C° 0 mm 6 m/s 738 mmHg 27%
    10:00 +35°C° 0 mm 7 m/s 737 mmHg 27%
    11:00 +38°C° 0 mm 7 m/s 737 mmHg 26%
    12:00 +39°C° 0 mm 7 m/s 737 mmHg 25%
    13:00 +41°C° 0 mm 7 m/s 737 mmHg 25%
    14:00 +40°C° 0 mm 7 m/s 737 mmHg 25%
    15:00 +39°C° 0 mm 6 m/s 737 mmHg 24%
    16:00 +38°C° 0 mm 6 m/s 736 mmHg 24%
    17:00 +34°C° 0 mm 5 m/s 736 mmHg 28%
    18:00 +32°C° 0 mm 4 m/s 737 mmHg 31%
    19:00 +28°C° 0 mm 3 m/s 737 mmHg 35%
    20:00 +25°C° 0 mm 3 m/s 737 mmHg 45%
    21:00 +23°C° 0 mm 2 m/s 738 mmHg 55%
    22:00 +19°C° 0 mm 2 m/s 738 mmHg 65%
    23:00 +19°C° 0 mm 2 m/s 738 mmHg 67%

    26 Janeiro, Sábado

    Tempo Temperatura Precipitação Vento Pressão Humidade
    00:00 +19°C° 0 mm 3 m/s 739 mmHg 69%
    01:00 +18°C° 0 mm 3 m/s 739 mmHg 71%
    02:00 +18°C° 0 mm 3 m/s 739 mmHg 70%
    03:00 +18°C° 0 mm 3 m/s 740 mmHg 70%
    04:00 +17°C° 0 mm 3 m/s 740 mmHg 69%
    05:00 +17°C° 0 mm 2 m/s 741 mmHg 68%
    06:00 +17°C° 0 mm 2 m/s 741 mmHg 67%
    07:00 +17°C° 0 mm 2 m/s 741 mmHg 66%
    08:00 +19°C° 0 mm 2 m/s 742 mmHg 59%
    09:00 +20°C° 0 mm 2 m/s 742 mmHg 51%
    10:00 +23°C° 0 mm 2 m/s 742 mmHg 44%
    11:00 +26°C° 0 mm 2 m/s 742 mmHg 39%
    12:00 +28°C° 0 mm 2 m/s 741 mmHg 35%
    13:00 +30°C° 0 mm 2 m/s 741 mmHg 30%
    14:00 +27°C° 0 mm 3 m/s 740 mmHg 40%
    15:00 +23°C° 0 mm 4 m/s 740 mmHg 50%
    16:00 +20°C° 0 mm 5 m/s 739 mmHg 60%
    17:00 +19°C° 0.1 mm 4 m/s 739 mmHg 68%
    18:00 +17°C° 0.1 mm 3 m/s 739 mmHg 77%
    19:00 +16°C° 0.1 mm 2 m/s 739 mmHg 85%
    20:00 +15°C° 0.1 mm 2 m/s 739 mmHg 87%
    21:00 +15°C° 0.1 mm 2 m/s 739 mmHg 88%
    22:00 +14°C° 0.1 mm 3 m/s 739 mmHg 89%
    23:00 +14°C° 0 mm 2 m/s 739 mmHg 90%

    27 Janeiro, Domingo

    Tempo Temperatura Precipitação Vento Pressão Humidade
    00:00 +13°C° 0 mm 2 m/s 738 mmHg 91%
    01:00 +12°C° 0 mm 1 m/s 738 mmHg 92%
    02:00 +12°C° 0 mm 2 m/s 738 mmHg 90%
    03:00 +12°C° 0 mm 2 m/s 738 mmHg 88%
    04:00 +10°C° 0 mm 2 m/s 738 mmHg 86%
    05:00 +12°C° 0 mm 3 m/s 739 mmHg 79%
    06:00 +14°C° 0 mm 4 m/s 739 mmHg 72%
    07:00 +15°C° 0 mm 4 m/s 739 mmHg 65%
    08:00 +17°C° 0.1 mm 4 m/s 740 mmHg 62%
    09:00 +16°C° 0.1 mm 5 m/s 740 mmHg 59%
    10:00 +17°C° 0.1 mm 5 m/s 740 mmHg 56%
    11:00 +17°C° 0 mm 5 m/s 740 mmHg 54%
    12:00 +17°C° 0 mm 5 m/s 740 mmHg 52%
    13:00 +17°C° 0 mm 5 m/s 740 mmHg 51%
    14:00 +17°C° 0 mm 5 m/s 740 mmHg 49%
    15:00 +17°C° 0 mm 5 m/s 740 mmHg 48%
    16:00 +17°C° 0 mm 5 m/s 740 mmHg 47%
    17:00 +17°C° 0 mm 5 m/s 741 mmHg 48%
    18:00 +16°C° 0 mm 5 m/s 741 mmHg 50%
    19:00 +17°C° 0 mm 4 m/s 741 mmHg 51%
    20:00 +15°C° 0 mm 4 m/s 742 mmHg 54%
    21:00 +14°C° 0 mm 4 m/s 742 mmHg 58%
    22:00 +14°C° 0 mm 4 m/s 743 mmHg 61%
    23:00 +13°C° 0 mm 4 m/s 742 mmHg 62%
    Mostrar mais